This is the latest recevied weather packets stored in our database for station/object KE4EST. If no packets are shown the sender has not sent any weather packets the latest 1 day(s).
| Time | Temp. | Humidity | Pressure | Rain* | Wind** | Luminosity | Snow |
|---|---|---|---|---|---|---|---|
| 1778019136 | 22.78° C | 38% | 1013.8 hPa | 0 mm | 0.89 m/s, 148° | 55 W/m² | - |
| 1778018833 | 22.78° C | 39% | 1013.6 hPa | 0 mm | 0.45 m/s, 124° | 48 W/m² | - |
| 1778018530 | 22.78° C | 42% | 1013.7 hPa | 0 mm | 0.89 m/s, 107° | 57 W/m² | - |
| 1778018228 | 22.78° C | 41% | 1013.8 hPa | 0 mm | 0.45 m/s, 146° | 64 W/m² | - |
| 1778017926 | 23.33° C | 41% | 1013.4 hPa | 0 mm | 0 m/s | 70 W/m² | - |
| 1778017623 | 23.33° C | 43% | 1013.2 hPa | 0 mm | 0.45 m/s, 85° | 71 W/m² | - |
| 1778017321 | 23.89° C | 44% | 1013.5 hPa | 0 mm | 0.45 m/s, 115° | 67 W/m² | - |
| 1778017018 | 24.44° C | 40% | 1013.5 hPa | 0 mm | 0 m/s | 75 W/m² | - |
| 1778016715 | 24.44° C | 41% | 1013.5 hPa | 0 mm | 0 m/s | 97 W/m² | - |
| 1778016410 | 24.44° C | 39% | 1013.4 hPa | 0 mm | 0.89 m/s, 105° | 90 W/m² | - |
| 1778016108 | 24.44° C | 38% | 1013.4 hPa | 0 mm | 0.45 m/s, 102° | 68 W/m² | - |
| 1778015805 | 24.44° C | 39% | 1013.3 hPa | 0 mm | 0.45 m/s, 87° | 76 W/m² | - |
| 1778015502 | 24.44° C | 38% | 1013.5 hPa | 0 mm | 0.45 m/s, 104° | 76 W/m² | - |
| 1778015199 | 25° C | 38% | 1013.5 hPa | 0 mm | 0.45 m/s, 114° | 70 W/m² | - |
| 1778014895 | 25.56° C | 37% | 1013.2 hPa | 0 mm | 0 m/s | 263 W/m² | - |
| 1778014592 | 25.56° C | 37% | 1013.4 hPa | 0 mm | 0.45 m/s, 124° | 430 W/m² | - |
| 1778014290 | 24.44° C | 37% | 1013.5 hPa | 0 mm | 0.45 m/s, 62° | 191 W/m² | - |
| 1778013982 | 24.44° C | 39% | 1013.6 hPa | 0 mm | 0.89 m/s, 97° | 160 W/m² | - |
| 1778013679 | 24.44° C | 36% | 1013.5 hPa | 0 mm | 1.34 m/s, 216° | 246 W/m² | - |
| 1778013375 | 25° C | 37% | 1013.4 hPa | 0 mm | 0 m/s | 334 W/m² | - |
| 1778013073 | 25.56° C | 37% | 1013.5 hPa | 0 mm | 0.89 m/s, 154° | 469 W/m² | - |
| 1778012763 | 26.11° C | 36% | 1013.5 hPa | 0 mm | 0.45 m/s, 122° | 243 W/m² | - |
| 1778012459 | 26.11° C | 39% | 1013.6 hPa | 0 mm | 0 m/s | 490 W/m² | - |
| 1778012156 | 26.11° C | 39% | 1013.7 hPa | 0 mm | 0 m/s | 470 W/m² | - |
| 1778011854 | 26.11° C | 38% | 1013.6 hPa | 0 mm | 0.89 m/s, 142° | 537 W/m² | - |
* Rain latest hour (hover to see other rain measurements)
** Current wind speed in m/s (hover to see current wind gust speed)